GW3762 Weather Reports


Display with metric or nautical units.
time (UTC)temp
F
wind
direction
speed
MPH
gust
MPH
rain 1hr
in
rain 24hr
in
rain mn
in
humidity
%
barometer
mb
20260902222959 65 19 0.0 5.0 0.00 0.25 0.00 87 1020.8
20260902222500 65 340 0.0 4.0 0.00 0.25 0.00 87 1020.9
20260902221959 65 54 0.0 4.0 0.00 0.25 0.00 87 1020.9
20260902221500 66 59 2.0 3.0 0.00 0.25 0.00 87 1020.9
20260902221000 66 51 0.0 3.0 0.00 0.25 0.00 87 1020.9
20260902220459 66 61 3.0 4.0 0.00 0.25 0.00 87 1020.9
20260902220003 66 36 2.0 4.0 0.00 0.25 0.00 87 1020.9
20260902215459 66 56 3.0 3.0 0.00 0.26 0.00 86 1020.8
20260902214959 66 38 1.0 4.0 0.00 0.26 0.00 86 1020.8
20260902214459 66 335 2.0 4.0 0.00 0.26 0.00 87 1020.7
20260902214000 66 50 0.0 4.0 0.00 0.26 0.00 86 1020.7
20260902212959 66 41 0.0 4.0 0.00 0.26 0.00 85 1020.8
20260902212459 66 44 0.0 4.0 0.00 0.26 0.00 85 1020.8
20260902212000 66 321 1.0 4.0 0.00 0.26 0.00 85 1020.8
20260902211459 66 61 1.0 4.0 0.00 0.26 0.00 85 1020.7
20260902211000 66 61 1.0 4.0 0.00 0.26 0.00 87 1020.6
20260902205959 66 94 3.0 8.0 0.00 0.26 0.00 86 1020.5
20260902205500 66 71 1.0 6.0 0.00 0.26 0.00 85 1020.7
20260902205000 66 45 4.0 6.0 0.00 0.26 0.00 84 1020.8
20260902204459 66 23 1.0 9.0 0.00 0.26 0.00 84 1020.9
20260902203959 66 34 0.0 11.0 0.00 0.26 0.00 85 1020.6
20260902203500 66 47 3.0 6.0 0.00 0.26 0.00 87 1020.3
20260902202959 66 61 2.0 6.0 0.00 0.26 0.00 86 1020.4
20260902202459 66 24 3.0 7.0 0.00 0.26 0.00 85 1020.5
20260902202000 66 9 3.0 7.0 0.00 0.26 0.00 85 1020.5
20260902201500 67 44 3.0 7.0 0.00 0.26 0.00 86 1020.5
20260902200959 66 26 1.0 3.0 0.00 0.26 0.00 87 1020.4
20260902200500 66 44 2.0 3.0 0.00 0.26 0.00 87 1020.4
20260902200000 66 340 0.0 3.0 0.00 0.26 0.00 87 1020.4
20260902195459 66 332 0.0 2.0 0.00 0.26 0.00 88 1020.6
20260902195007 66 332 0.0 2.0 0.00 0.26 0.00 87 1020.7
20260902194459 66 73 0.0 1.0 0.00 0.26 0.00 86 1020.7
20260902193959 66 286 0.0 1.0 0.00 0.26 0.00 84 1020.9
20260902193502 66 286 0.0 0.0 0.00 0.26 0.00 84 1021.3
20260902193003 66 286 0.0 0.0 0.00 0.26 0.00 83 1021.6
20260902192500 67 286 0.0 0.0 0.00 0.26 0.00 82 1021.6
20260902191959 67 286 0.0 1.0 0.00 0.26 0.00 81 1021.6
20260902191500 67 286 0.0 5.0 0.00 0.26 0.00 80 1021.5
20260902190500 67 46 0.0 5.0 0.00 0.26 0.00 79 1021.2
20260902185459 67 332 1.0 5.0 0.00 0.26 0.00 79 1021.2
20260902185000 67 48 2.0 5.0 0.00 0.26 0.00 79 1021.1
20260902184459 68 198 0.0 5.0 0.00 0.26 0.00 76 1021.2
20260902183959 68 36 2.0 5.0 0.00 0.26 0.00 78 1021.1
20260902183459 68 80 2.0 6.0 0.00 0.26 0.00 76 1020.9
20260902182959 69 293 0.0 6.0 0.00 0.26 0.00 74 1021.0
20260902182500 69 75 2.0 4.0 0.00 0.26 0.00 76 1021.0
20260902181459 69 50 1.0 4.0 0.00 0.26 0.00 76 1021.3
20260902180959 69 51 2.0 3.0 0.00 0.26 0.00 76 1021.4
20260902180500 68 219 0.0 3.0 0.00 0.26 0.00 78 1021.5
20260902180002 68 17 0.0 4.0 0.00 0.26 0.00 77 1021.5
20260902175459 68 351 1.0 4.0 0.00 0.26 0.00 75 1021.6
20260902174959 68 35 0.0 2.0 0.00 0.26 0.00 77 1021.5
20260902173959 68 242 0.0 3.0 0.00 0.26 0.00 74 1021.6
20260902173459 68 232 2.0 3.0 0.00 0.26 0.00 74 1021.6
20260902172959 68 203 0.0 1.0 0.00 0.26 0.00 72 1021.7
20260902172459 69 203 0.0 1.0 0.00 0.26 0.00 74 1021.8
20260902171959 69 203 0.0 2.0 0.00 0.26 0.00 74 1021.7
20260902170459 70 360 2.0 5.0 0.00 0.26 0.00 79 1021.1
20260902165458 70 87 0.0 9.0 0.00 0.26 0.00 76 1021.1
20260902164958 70 88 5.0 9.0 0.00 0.26 0.00 76 1021.2
20260902164459 70 44 7.0 9.0 0.00 0.26 0.00 75 1021.3
20260902163958 70 65 3.0 6.0 0.00 0.26 0.00 78 1021.4
20260902163458 69 32 3.0 6.0 0.00 0.26 0.00 78 1021.6
20260902162458 68 66 2.0 5.0 0.00 0.26 0.00 77 1021.5
20260902161958 68 44 3.0 10.0 0.00 0.26 0.00 78 1021.6
20260902160458 68 61 3.0 6.0 0.00 0.26 0.00 75 1021.5
20260902160001 68 61 2.0 9.0 0.00 0.26 0.00 77 1021.5
20260902155459 69 62 0.0 9.0 0.00 0.26 0.00 79 1021.6
20260902155000 69 217 0.0 4.0 0.00 0.26 0.00 78 1021.6
20260902154459 69 101 0.0 4.0 0.00 0.26 0.00 81 1021.7
20260902153459 68 65 3.0 8.0 0.00 0.26 0.00 81 1021.9
20260902152959 68 57 3.0 8.0 0.00 0.26 0.00 81 1021.9
20260902152459 68 58 2.0 5.0 0.00 0.26 0.00 83 1022.0
20260902152000 67 44 4.0 4.0 0.00 0.26 0.00 84 1022.0
20260902151502 67 57 1.0 4.0 0.00 0.26 0.00 83 1022.1
20260902151000 67 57 2.0 5.0 0.00 0.26 0.00 84 1022.1
20260902150500 67 52 4.0 5.0 0.00 0.26 0.00 84 1022.0
20260902150003 66 67 0.0 3.0 0.00 0.26 0.00 83 1021.9
20260902145458 66 56 1.0 3.0 0.00 0.28 0.00 85 1022.0
20260902144958 66 47 0.0 4.0 0.00 0.28 0.00 85 1022.0
20260902144458 66 46 0.0 5.0 0.00 0.28 0.00 84 1021.9
20260902143959 65 32 4.0 6.0 0.00 0.28 0.00 83 1022.0
20260902143459 65 63 3.0 4.0 0.00 0.28 0.00 84 1021.9
20260902142958 65 70 2.0 5.0 0.00 0.28 0.00 85 1021.9
20260902142458 65 67 1.0 6.0 0.00 0.28 0.00 85 1022.0
20260902141459 65 60 2.0 8.0 0.00 0.28 0.00 87 1022.0
20260902140458 64 61 4.0 6.0 0.00 0.28 0.00 88 1021.9
20260902140002 64 42 3.0 4.0 0.00 0.28 0.00 89 1022.0
20260902135459 64 80 2.0 4.0 0.00 0.35 0.00 90 1021.9
20260902134959 64 51 4.0 5.0 0.00 0.35 0.00 91 1021.7
20260902133959 63 37 3.0 4.0 0.00 0.35 0.00 91 1021.6
20260902133459 63 42 3.0 8.0 0.00 0.35 0.00 91 1021.7
20260902133000 63 77 5.0 8.0 0.00 0.35 0.00 92 1021.7
20260902132500 63 49 3.0 6.0 0.00 0.35 0.00 92 1021.5
20260902131959 63 63 3.0 7.0 0.00 0.35 0.00 93 1021.5
20260902131459 63 62 4.0 9.0 0.00 0.35 0.00 94 1021.4
20260902130959 62 45 3.0 11.0 0.00 0.35 0.00 94 1021.4
20260902130459 62 47 5.0 11.0 0.00 0.35 0.00 94 1021.3
20260902125459 61 23 6.0 9.0 0.00 0.36 0.00 95 1021.2
20260902124959 61 63 6.0 9.0 0.00 0.36 0.00 95 1021.1
20260902123959 61 69 8.0 11.0 0.00 0.36 0.00 95 1020.8
20260902123500 60 65 6.0 10.0 0.00 0.36 0.00 95 1020.9
20260902123000 60 43 4.0 13.0 0.00 0.36 0.00 95 1021.0
20260902122459 60 69 8.0 13.0 0.00 0.36 0.00 96 1021.2
20260902121959 60 37 9.0 11.0 0.00 0.36 0.00 96 1021.3
20260902121500 60 63 5.0 10.0 0.00 0.36 0.00 96 1021.3
20260902120959 60 75 3.0 10.0 0.00 0.36 0.00 96 1021.3
20260902120500 60 61 6.0 10.0 0.00 0.36 0.00 96 1021.4
20260902115957 60 89 5.0 10.0 0.00 0.36 0.00 96 1021.5
20260902115458 60 44 3.0 9.0 0.00 0.36 0.00 96 1021.5
20260902114958 60 69 6.0 10.0 0.00 0.36 0.00 96 1021.5
20260902114458 60 84 5.0 10.0 0.00 0.36 0.00 96 1021.5
20260902113958 60 75 4.0 7.0 0.00 0.36 0.00 96 1021.5
20260902113458 60 34 5.0 8.0 0.00 0.36 0.00 96 1021.5
20260902112958 60 63 4.0 6.0 0.00 0.36 0.00 96 1021.5
20260902112458 59 51 3.0 9.0 0.00 0.36 0.00 96 1021.5
20260902111958 59 46 6.0 9.0 0.00 0.36 0.00 96 1021.5
20260902110957 59 70 4.0 10.0 0.00 0.36 0.00 96 1021.3
20260902110458 59 70 5.0 9.0 0.00 0.36 0.00 96 1021.2
20260902105459 59 58 6.0 10.0 0.00 0.36 0.00 96 1021.2
20260902104959 59 69 4.0 10.0 0.00 0.36 0.00 96 1021.3
20260902103959 59 76 4.0 9.0 0.00 0.36 0.00 96 1021.2
20260902103459 59 85 5.0 9.0 0.00 0.36 0.00 96 1021.0
20260902102959 59 65 3.0 9.0 0.00 0.36 0.00 96 1020.9
20260902102459 59 63 5.0 8.0 0.00 0.36 0.00 96 1020.9
20260902101959 59 67 5.0 8.0 0.00 0.36 0.00 96 1021.1
20260902101459 59 65 5.0 9.0 0.00 0.36 0.00 96 1020.9
20260902100459 59 72 5.0 7.0 0.00 0.36 0.00 96 1020.9
20260902095958 59 82 4.0 7.0 0.00 0.37 0.00 96 1020.9
20260902095457 59 54 5.0 7.0 0.00 0.37 0.00 96 1020.7
20260902094958 59 51 6.0 8.0 0.00 0.37 0.00 96 1020.6
20260902094458 59 78 5.0 6.0 0.00 0.37 0.00 96 1020.7
20260902093958 59 61 4.0 7.0 0.00 0.37 0.00 96 1020.6
20260902093458 59 64 8.0 8.0 0.00 0.37 0.00 96 1020.6
20260902092959 59 71 8.0 8.0 0.00 0.37 0.00 96 1020.5
20260902092458 59 75 3.0 8.0 0.00 0.37 0.00 96 1020.4
20260902091958 59 57 4.0 8.0 0.00 0.37 0.00 96 1020.4
20260902091458 59 82 4.0 8.0 0.00 0.37 0.00 96 1020.3
20260902090958 59 53 2.0 8.0 0.00 0.37 0.00 96 1020.4
20260902090458 59 53 4.0 9.0 0.00 0.37 0.00 96 1020.3
20260902090001 59 63 6.0 9.0 0.00 0.37 0.00 96 1020.2
20260902085459 59 65 4.0 9.0 0.00 0.39 0.00 96 1020.2
20260902084959 59 63 4.0 10.0 0.00 0.39 0.00 96 1020.2
20260902083959 59 42 6.0 9.0 0.00 0.39 0.00 96 1020.2
20260902083459 59 75 5.0 9.0 0.00 0.39 0.00 96 1020.2
20260902082959 59 62 5.0 7.0 0.00 0.39 0.00 96 1020.1
20260902082500 59 61 6.0 7.0 0.00 0.39 0.00 96 1020.1
20260902081959 59 68 4.0 8.0 0.00 0.39 0.00 96 1020.1
20260902081459 59 44 5.0 10.0 0.00 0.39 0.00 96 1020.0
20260902081000 59 40 4.0 12.0 0.00 0.39 0.00 96 1020.0
20260902080500 59 63 5.0 12.0 0.00 0.39 0.00 96 1019.9
20260902075958 59 45 7.0 11.0 0.00 0.45 0.00 96 1019.9
20260902074958 59 65 4.0 10.0 0.00 0.45 0.00 96 1019.9
20260902074457 59 12 5.0 10.0 0.00 0.45 0.00 96 1019.9
20260902073958 59 78 4.0 11.0 0.00 0.45 0.00 96 1019.9
20260902073458 59 70 6.0 11.0 0.00 0.45 0.00 96 1019.8
20260902072958 59 61 5.0 10.0 0.00 0.45 0.00 96 1019.9
20260902072458 59 59 6.0 10.0 0.00 0.45 0.00 96 1019.9
20260902071959 59 51 5.0 11.0 0.00 0.45 0.00 96 1019.8
20260902071458 59 67 8.0 11.0 0.00 0.45 0.00 96 1019.8
20260902070959 59 85 7.0 11.0 0.00 0.45 0.00 96 1019.9
20260902070458 59 61 5.0 11.0 0.00 0.45 0.00 96 1019.8
20260902065958 59 86 8.0 8.0 0.00 0.58 0.00 96 1019.9
20260902064958 59 50 7.0 9.0 0.00 0.58 0.00 96 1019.7
20260902063958 60 64 5.0 8.0 0.00 0.58 0.00 96 1019.6
20260902063458 60 67 4.0 8.0 0.00 0.58 0.00 96 1019.8
20260902062958 60 61 4.0 8.0 0.00 0.58 0.00 96 1019.8
20260902062458 60 71 4.0 6.0 0.00 0.58 0.00 96 1019.8
20260902061958 60 70 5.0 7.0 0.00 0.58 0.00 96 1019.8
20260902060957 60 59 4.0 8.0 0.00 0.58 0.00 96 1019.8
20260902060458 60 68 6.0 9.0 0.00 0.58 0.00 96 1019.7
20260902055459 60 47 2.0 8.0 0.00 0.58 0.00 96 1019.9
20260902054959 60 36 6.0 9.0 0.00 0.58 0.00 96 1019.9
20260902054459 60 56 6.0 9.0 0.00 0.58 0.00 96 1020.1
20260902053459 60 74 4.0 9.0 0.00 0.58 0.00 96 1019.9
20260902053000 60 58 6.0 6.0 0.00 0.58 0.00 96 1020.0
20260902052000 60 59 3.0 6.0 0.00 0.58 0.00 96 1019.9
20260902051459 60 59 2.0 5.0 0.00 0.58 0.00 96 1019.9
20260902050003 60 32 3.0 6.0 0.00 0.58 0.00 96 1019.7
20260902045500 60 42 3.0 6.0 0.00 0.58 0.00 96 1019.6
20260902043500 60 64 5.0 8.0 0.00 0.58 0.00 96 1019.6
20260902043000 60 71 4.0 9.0 0.00 0.58 0.00 96 1019.4
20260902042459 60 55 4.0 8.0 0.00 0.58 0.00 96 1019.5
20260902041500 60 54 3.0 7.0 0.00 0.58 0.00 96 1019.5
20260902041000 60 62 4.0 6.0 0.00 0.58 0.00 96 1019.6
20260902040501 60 64 4.0 6.0 0.00 0.58 0.00 96 1019.6
20260902040000 60 64 4.0 8.0 0.00 0.58 0.58 96 1019.5
20260902035459 60 61 3.0 8.0 0.00 0.58 0.58 96 1019.6
20260902034959 60 84 3.0 6.0 0.00 0.58 0.58 96 1019.5
20260902034501 60 44 3.0 6.0 0.00 0.58 0.58 96 1019.4
20260902034002 60 38 3.0 7.0 0.00 0.58 0.58 96 1019.3
20260902032959 60 38 7.0 11.0 0.00 0.58 0.58 96 1018.9
20260902032500 60 55 3.0 11.0 0.00 0.58 0.58 96 1018.9
20260902032000 60 84 7.0 7.0 0.00 0.58 0.58 96 1019.1
20260902031500 60 38 2.0 9.0 0.00 0.58 0.58 96 1019.2
20260902031001 60 69 4.0 10.0 0.00 0.58 0.58 96 1018.9
20260902030003 60 71 3.0 8.0 0.00 0.58 0.58 96 1019.0
20260902025459 60 61 4.0 6.0 0.00 0.58 0.58 96 1019.2
20260902025000 60 52 5.0 7.0 0.00 0.58 0.58 96 1019.0
20260902024500 60 77 7.0 9.0 0.00 0.58 0.58 96 1018.8
20260902024001 60 58 4.0 9.0 0.00 0.58 0.58 96 1018.7
20260902023500 60 67 4.0 7.0 0.00 0.58 0.58 96 1018.8
20260902023000 60 77 3.0 6.0 0.00 0.58 0.58 96 1018.8
20260902022500 60 29 2.0 6.0 0.00 0.58 0.58 96 1018.7
20260902022000 60 56 4.0 10.0 0.00 0.58 0.58 96 1018.8
20260902021459 60 75 3.0 10.0 0.00 0.58 0.58 96 1018.8
20260902021000 60 34 5.0 9.0 0.01 0.58 0.58 96 1018.8
20260902020500 60 66 6.0 9.0 0.01 0.58 0.58 96 1018.7
20260902020002 60 24 6.0 10.0 0.01 0.58 0.58 96 1018.6
20260902015001 60 52 5.0 9.0 0.01 0.58 0.58 96 1018.5
20260902014501 60 55 4.0 11.0 0.01 0.58 0.58 96 1018.4
20260902014001 60 77 8.0 9.0 0.01 0.58 0.58 96 1018.4
20260902013501 60 41 4.0 10.0 0.01 0.58 0.58 96 1018.4
20260902013003 60 48 5.0 10.0 0.01 0.58 0.58 96 1018.1
20260902012500 60 42 4.0 10.0 0.01 0.58 0.58 96 1018.0
20260902012001 60 46 5.0 11.0 0.01 0.58 0.58 96 1018.1
20260902011500 60 78 7.0 12.0 0.01 0.58 0.58 96 1018.1
20260902011002 60 64 6.0 10.0 0.00 0.57 0.57 96 1018.1
20260902010501 60 57 5.0 12.0 0.00 0.57 0.57 96 1017.8
20260902010003 60 61 8.0 12.0 0.00 0.57 0.57 96 1017.8
20260902005500 60 68 9.0 11.0 0.00 0.57 0.57 96 1018.0
20260902004959 60 57 6.0 10.0 0.00 0.57 0.57 96 1018.0
20260902004500 60 63 4.0 10.0 0.00 0.57 0.57 96 1018.1
20260902004000 60 69 4.0 10.0 0.00 0.57 0.57 96 1018.0
20260902003501 60 38 5.0 10.0 0.00 0.57 0.57 96 1017.8
20260902003000 60 58 5.0 11.0 0.00 0.57 0.57 96 1017.7
20260902002001 60 76 8.0 10.0 0.00 0.57 0.57 96 1017.6
20260902001459 60 61 5.0 11.0 0.00 0.57 0.57 95 1017.5
20260902001000 60 61 4.0 12.0 0.00 0.57 0.57 95 1017.7
20260902000500 60 69 5.0 12.0 0.00 0.57 0.57 95 1017.7
20260902000001 60 69 10.0 14.0 0.00 0.57 0.57 95 1017.7
20260901235459 60 74 7.0 15.0 0.02 0.57 0.57 95 1017.4
20260901234959 61 65 8.0 12.0 0.13 0.57 0.57 96 1017.5
20260901234500 61 71 9.0 12.0 0.21 0.57 0.57 96 1017.4
20260901233500 61 45 10.0 12.0 0.23 0.57 0.57 95 1017.3
20260901233000 61 44 9.0 11.0 0.23 0.57 0.57 95 1017.3
20260901232501 61 53 5.0 12.0 0.23 0.57 0.57 95 1017.6
20260901231459 61 63 6.0 11.0 0.23 0.57 0.57 95 1017.5
20260901231000 61 59 6.0 10.0 0.23 0.57 0.57 95 1017.4
20260901230459 61 57 6.0 11.0 0.23 0.57 0.57 95 1017.3
20260901230004 61 30 5.0 12.0 0.24 0.57 0.57 95 1017.1
20260901225500 61 78 11.0 12.0 0.23 0.55 0.55 95 1017.3
20260901224500 62 48 7.0 14.0 0.04 0.36 0.36 95 1017.0
20260901224000 62 44 9.0 14.0 0.02 0.34 0.34 95 1017.0
20260901223500 62 80 5.0 14.0 0.02 0.34 0.34 95 1017.0